QPF
0.05 0.09 0.15 0.19 0.13 0.09 0.06 0.04 0.04 0.03 0.02 0.02 0.02 0.01 0.02 0.02 0.03 0.04 0.07 0.11 0.04 0.03 0.02 0.02 0.03 0.03 0.03 0.04 0.04 0.03 0.03 0.03 0.04 0.04 0.05 0.07 0.09 0.09 0.08 0.09 0.12 0.16 0.19 0.16 0.11 0.10 0.12 0.17 0.19
0.14 0.20 0.17 0.16 0.16 0.10 0.10 0.06 0.02 0.01 0.01 0.01 0.01 0.00 0.01 0.02 0.03 0.04 0.06 0.08 0.04 0.02 0.02 0.02 0.02 0.03 0.04 0.05 0.04 0.03 0.02 0.02 0.02 0.04 0.07 0.09 0.11 0.11 0.10 0.11 0.12 0.15 0.17 0.14 0.11 0.11 0.14 0.19 0.21
0.11 0.19 0.17 0.18 0.07 0.04 0.05 0.03 0.01 0.00 0.01 0.00 0.00 0.01 0.01 0.04 0.04 0.03 0.05 0.06 0.05 0.04 0.03 0.02 0.01 0.02 0.04 0.05 0.04 0.04 0.03 0.02 0.02 0.03 0.05 0.08 0.11 0.12 0.13 0.13 0.14 0.15 0.17 0.16 0.14 0.15 0.20 0.28 0.27
0.17 0.16 0.11 0.10 0.03 0.01 0.01 0.01 0.01 0.01 0.01 0.01 0.00 0.01 0.02 0.03 0.03 0.03 0.06 0.07 0.05 0.04 0.03 0.02 0.02 0.05 0.06 0.06 0.04 0.03 0.03 0.03 0.03 0.03 0.05 0.08 0.10 0.12 0.14 0.14 0.15 0.16 0.19 0.19 0.17 0.17 0.27 0.39 0.42
0.20 0.14 0.08 0.04 0.02 0.01 0.00 0.00 0.00 0.01 0.00 0.00 0.00 0.01 0.04 0.04 0.02 0.03 0.07 0.07 0.05 0.03 0.02 0.02 0.03 0.05 0.06 0.05 0.04 0.03 0.03 0.03 0.04 0.03 0.05 0.07 0.09 0.13 0.14 0.14 0.17 0.18 0.17 0.16 0.15 0.19 0.28 0.32 0.39
0.07 0.07 0.07 0.04 0.01 0.01 0.01 0.00 0.00 0.00 0.00 0.00 0.00 0.01 0.05 0.04 0.03 0.03 0.05 0.04 0.03 0.02 0.01 0.02 0.02 0.04 0.04 0.04 0.04 0.03 0.03 0.04 0.05 0.05 0.06 0.07 0.09 0.12 0.13 0.15 0.17 0.15 0.13 0.13 0.13 0.18 0.19 0.16 0.26
0.05 0.04 0.03 0.02 0.01 0.02 0.01 0.01 0.01 0.00 0.01 0.00 0.00 0.01 0.03 0.04 0.03 0.03 0.03 0.03 0.03 0.02 0.01 0.01 0.03 0.06 0.07 0.07 0.07 0.07 0.07 0.06 0.06 0.06 0.06 0.07 0.10 0.10 0.13 0.16 0.15 0.13 0.12 0.11 0.09 0.10 0.09 0.10 0.15
0.03 0.02 0.02 0.01 0.01 0.02 0.02 0.01 0.01 0.01 0.01 0.00 0.00 0.01 0.02 0.02 0.02 0.02 0.02 0.03 0.03 0.02 0.01 0.01 0.02 0.04 0.08 0.11 0.13 0.12 0.11 0.10 0.09 0.09 0.09 0.09 0.10 0.11 0.14 0.16 0.16 0.15 0.14 0.11 0.08 0.08 0.08 0.10 0.11
0.01 0.01 0.01 0.01 0.01 0.01 0.01 0.01 0.01 0.01 0.01 0.00 0.01 0.01 0.01 0.01 0.01 0.02 0.02 0.02 0.02 0.02 0.01 0.02 0.03 0.04 0.07 0.09 0.11 0.13 0.13 0.12 0.12 0.14 0.16 0.13 0.09 0.10 0.15 0.16 0.17 0.16 0.15 0.12 0.10 0.08 0.08 0.09 0.09
0.00 0.00 0.00 0.00 0.00 0.00 0.01 0.01 0.00 0.01 0.01 0.00 0.01 0.01 0.01 0.02 0.02 0.02 0.02 0.02 0.02 0.03 0.02 0.02 0.03 0.04 0.07 0.09 0.08 0.10 0.11 0.11 0.10 0.12 0.11 0.08 0.07 0.09 0.12 0.15 0.16 0.15 0.13 0.12 0.11 0.08 0.07 0.07 0.07
0.00 0.00 0.00 0.00 0.00 0.00 0.00 0.00 0.00 0.00 0.00 0.00 0.00 0.00 0.01 0.02 0.02 0.02 0.02 0.02 0.01 0.02 0.02 0.02 0.03 0.04 0.04 0.04 0.07 0.11 0.12 0.10 0.08 0.09 0.10 0.08 0.07 0.10 0.13 0.16 0.16 0.13 0.13 0.14 0.12 0.10 0.09 0.08 0.07
0.00 0.00 0.00 0.00 0.00 0.00 0.00 0.00 0.00 0.00 0.00 0.00 0.00 0.00 0.00 0.01 0.02 0.02 0.02 0.01 0.01 0.02 0.01 0.01 0.02 0.03 0.04 0.05 0.06 0.08 0.10 0.10 0.08 0.09 0.10 0.10 0.08 0.09 0.10 0.13 0.12 0.11 0.13 0.15 0.14 0.13 0.10 0.08 0.05
0.00 0.00 0.00 0.00 0.00 0.00 0.00 0.00 0.00 0.00 0.00 0.00 0.00 0.00 0.00 0.00 0.01 0.02 0.02 0.03 0.02 0.02 0.01 0.00 0.01 0.02 0.04 0.06 0.05 0.06 0.07 0.09 0.09 0.09 0.11 0.13 0.11 0.10 0.10 0.10 0.11 0.10 0.12 0.16 0.16 0.12 0.07 0.06 0.04
0.00 0.00 0.00 0.00 0.00 0.00 0.00 0.00 0.00 0.00 0.00 0.00 0.00 0.00 0.00 0.00 0.00 0.01 0.01 0.01 0.01 0.01 0.01 0.01 0.01 0.02 0.05 0.10 0.07 0.05 0.06 0.07 0.07 0.08 0.15 0.18 0.13 0.08 0.06 0.07 0.12 0.10 0.10 0.13 0.13 0.08 0.06 0.05 0.05
0.00 0.00 0.00 0.00 0.00 0.00 0.00 0.00 0.00 0.00 0.00 0.00 0.00 0.00 0.00 0.00 0.00 0.01 0.01 0.01 0.01 0.01 0.01 0.01 0.02 0.03 0.05 0.10 0.07 0.04 0.03 0.03 0.03 0.05 0.08 0.08 0.05 0.05 0.05 0.07 0.11 0.12 0.10 0.09 0.08 0.06 0.06 0.05 0.05
0.00 0.00 0.00 0.00 0.00 0.01 0.01 0.01 0.01 0.00 0.00 0.00 0.00 0.00 0.00 0.00 0.00 0.01 0.02 0.01 0.01 0.01 0.01 0.01 0.01 0.02 0.04 0.06 0.05 0.04 0.03 0.03 0.03 0.03 0.05 0.04 0.03 0.03 0.03 0.04 0.09 0.11 0.07 0.06 0.05 0.06 0.05 0.03 0.02
0.01 0.01 0.00 0.00 0.00 0.00 0.00 0.01 0.01 0.01 0.00 0.00 0.00 0.00 0.00 0.00 0.00 0.02 0.03 0.02 0.01 0.01 0.01 0.01 0.01 0.02 0.03 0.04 0.04 0.03 0.03 0.04 0.04 0.03 0.04 0.04 0.03 0.02 0.02 0.04 0.06 0.06 0.05 0.04 0.03 0.03 0.03 0.02 0.02
0.01 0.01 0.01 0.01 0.00 0.00 0.00 0.01 0.01 0.00 0.00 0.00 0.00 0.00 0.00 0.00 0.00 0.02 0.02 0.01 0.01 0.01 0.01 0.01 0.01 0.03 0.03 0.03 0.03 0.03 0.03 0.04 0.03 0.02 0.02 0.02 0.01 0.01 0.01 0.02 0.02 0.02 0.03 0.04 0.03 0.03 0.03 0.03 0.04
0.01 0.01 0.01 0.01 0.01 0.01 0.01 0.01 0.01 0.00 0.00 0.00 0.00 0.00 0.00 0.01 0.01 0.02 0.02 0.01 0.02 0.02 0.01 0.01 0.02 0.03 0.03 0.02 0.02 0.01 0.02 0.03 0.03 0.02 0.02 0.01 0.01 0.00 0.01 0.01 0.01 0.02 0.03 0.04 0.03 0.04 0.05 0.05 0.05
0.02 0.01 0.01 0.01 0.01 0.01 0.02 0.02 0.01 0.01 0.01 0.01 0.01 0.00 0.00 0.01 0.01 0.03 0.02 0.01 0.02 0.03 0.03 0.03 0.02 0.01 0.02 0.03 0.01 0.01 0.02 0.03 0.03 0.03 0.02 0.01 0.01 0.00 0.01 0.01 0.01 0.01 0.02 0.02 0.03 0.04 0.05 0.05 0.06
0.03 0.01 0.01 0.01 0.01 0.01 0.01 0.02 0.02 0.02 0.03 0.02 0.02 0.01 0.01 0.00 0.01 0.01 0.01 0.00 0.01 0.03 0.05 0.04 0.02 0.02 0.02 0.02 0.02 0.02 0.02 0.04 0.06 0.05 0.04 0.03 0.01 0.01 0.01 0.01 0.01 0.01 0.01 0.01 0.02 0.03 0.04 0.05 0.07
0.02 0.01 0.02 0.02 0.02 0.03 0.02 0.03 0.02 0.02 0.03 0.02 0.02 0.01 0.01 0.00 0.00 0.00 0.01 0.01 0.01 0.04 0.06 0.07 0.05 0.03 0.02 0.02 0.02 0.02 0.04 0.06 0.08 0.05 0.03 0.02 0.01 0.01 0.01 0.01 0.01 0.01 0.01 0.01 0.02 0.02 0.04 0.06 0.07
0.01 0.01 0.01 0.02 0.02 0.03 0.02 0.02 0.02 0.02 0.02 0.01 0.01 0.01 0.01 0.00 0.00 0.00 0.00 0.00 0.01 0.04 0.05 0.06 0.04 0.02 0.02 0.03 0.02 0.02 0.04 0.05 0.05 0.03 0.02 0.02 0.01 0.01 0.00 0.00 0.01 0.01 0.01 0.01 0.03 0.04 0.05 0.05 0.05
0.01 0.01 0.01 0.02 0.02 0.04 0.03 0.02 0.02 0.03 0.04 0.03 0.02 0.01 0.01 0.00 0.00 0.00 0.00 0.00 0.01 0.04 0.05 0.03 0.03 0.02 0.02 0.03 0.03 0.02 0.02 0.03 0.02 0.02 0.03 0.02 0.01 0.01 0.01 0.01 0.01 0.01 0.01 0.01 0.03 0.05 0.05 0.04 0.03
0.01 0.01 0.02 0.02 0.03 0.04 0.04 0.03 0.01 0.01 0.01 0.01 0.01 0.01 0.01 0.00 0.00 0.00 0.00 0.00 0.01 0.03 0.06 0.04 0.03 0.02 0.03 0.03 0.03 0.02 0.02 0.02 0.02 0.02 0.03 0.03 0.01 0.01 0.01 0.01 0.02 0.02 0.03 0.04 0.03 0.05 0.05 0.04 0.03
0.00 0.00 0.02 0.05 0.04 0.04 0.04 0.03 0.02 0.01 0.01 0.00 0.01 0.01 0.01 0.01 0.00 0.01 0.00 0.00 0.01 0.01 0.03 0.04 0.02 0.01 0.02 0.02 0.02 0.02 0.02 0.02 0.02 0.01 0.02 0.02 0.01 0.01 0.02 0.02 0.02 0.04 0.05 0.06 0.06 0.04 0.03 0.02 0.02
0.00 0.00 0.01 0.02 0.04 0.02 0.03 0.03 0.02 0.02 0.01 0.01 0.01 0.01 0.01 0.01 0.01 0.01 0.01 0.00 0.01 0.02 0.01 0.01 0.01 0.01 0.01 0.02 0.01 0.02 0.02 0.02 0.02 0.01 0.02 0.01 0.01 0.02 0.02 0.03 0.03 0.04 0.05 0.05 0.04 0.03 0.02 0.01 0.01
0.01 0.00 0.01 0.02 0.03 0.02 0.02 0.03 0.03 0.03 0.02 0.03 0.02 0.01 0.01 0.01 0.02 0.02 0.01 0.00 0.01 0.03 0.02 0.01 0.01 0.01 0.01 0.01 0.01 0.02 0.03 0.04 0.04 0.04 0.03 0.02 0.03 0.05 0.06 0.04 0.03 0.03 0.03 0.03 0.02 0.02 0.01 0.01 0.01
0.00 0.01 0.01 0.01 0.01 0.01 0.02 0.03 0.03 0.02 0.02 0.01 0.01 0.02 0.02 0.02 0.02 0.02 0.02 0.01 0.01 0.02 0.03 0.02 0.01 0.01 0.01 0.01 0.01 0.01 0.02 0.05 0.06 0.04 0.05 0.03 0.04 0.07 0.08 0.04 0.02 0.02 0.02 0.02 0.03 0.02 0.02 0.02 0.02
0.00 0.01 0.01 0.01 0.00 0.00 0.01 0.01 0.01 0.01 0.01 0.01 0.01 0.01 0.02 0.02 0.02 0.02 0.02 0.02 0.02 0.02 0.04 0.04 0.02 0.02 0.02 0.02 0.03 0.02 0.04 0.07 0.08 0.05 0.04 0.03 0.03 0.04 0.05 0.03 0.02 0.01 0.02 0.03 0.03 0.03 0.03 0.03 0.03
MSLP
1006.55 1007.74 1009.00 1010.15 1011.06 1011.63 1011.86 1011.81 1011.59 1011.34 1011.19 1011.21 1011.40 1011.70 1012.01 1012.24 1012.27 1012.09 1011.69 1011.13 1010.48 1009.80 1009.15 1008.56 1008.03 1007.56 1007.15 1006.79 1006.49 1006.22 1005.93 1005.52 1004.86 1003.80 1002.22 1000.09 997.46 994.53 991.57 988.98 987.11 986.23 986.49 987.85 990.12 993.00 996.12 999.11 1001.73
1007.35 1008.69 1010.01 1011.13 1011.92 1012.31 1012.30 1012.00 1011.54 1011.09 1010.78 1010.68 1010.79 1011.06 1011.38 1011.63 1011.72 1011.61 1011.31 1010.85 1010.30 1009.73 1009.18 1008.66 1008.19 1007.75 1007.35 1007.00 1006.70 1006.44 1006.19 1005.85 1005.29 1004.37 1002.97 1001.04 998.62 995.89 993.12 990.68 988.90 988.06 988.30 989.58 991.74 994.46 997.41 1000.22 1002.67
1008.22 1009.65 1010.98 1012.03 1012.67 1012.86 1012.63 1012.10 1011.44 1010.82 1010.37 1010.18 1010.25 1010.49 1010.81 1011.08 1011.22 1011.17 1010.94 1010.58 1010.14 1009.67 1009.21 1008.78 1008.36 1007.97 1007.59 1007.25 1006.95 1006.71 1006.49 1006.23 1005.80 1005.08 1003.94 1002.32 1000.26 997.89 995.47 993.32 991.75 991.02 991.25 992.41 994.35 996.79 999.42 1001.90 1004.04
1009.01 1010.47 1011.76 1012.70 1013.19 1013.20 1012.80 1012.10 1011.31 1010.58 1010.07 1009.84 1009.87 1010.10 1010.41 1010.69 1010.85 1010.83 1010.66 1010.36 1010.00 1009.62 1009.26 1008.91 1008.56 1008.22 1007.86 1007.53 1007.23 1006.99 1006.80 1006.60 1006.31 1005.80 1004.97 1003.73 1002.11 1000.22 998.26 996.51 995.24 994.66 994.89 995.92 997.59 999.67 1001.88 1003.94 1005.69
1009.57 1011.00 1012.20 1013.03 1013.38 1013.27 1012.76 1012.00 1011.17 1010.43 1009.93 1009.70 1009.74 1009.96 1010.26 1010.53 1010.67 1010.66 1010.50 1010.25 1009.94 1009.63 1009.34 1009.06 1008.78 1008.48 1008.16 1007.83 1007.52 1007.27 1007.09 1006.94 1006.77 1006.46 1005.92 1005.09 1003.94 1002.56 1001.11 999.81 998.87 998.48 998.73 999.61 1000.99 1002.68 1004.44 1006.07 1007.41
1009.81 1011.14 1012.21 1012.92 1013.18 1013.01 1012.50 1011.78 1011.01 1010.37 1009.95 1009.79 1009.86 1010.10 1010.38 1010.61 1010.72 1010.68 1010.50 1010.25 1009.97 1009.70 1009.47 1009.25 1009.03 1008.77 1008.47 1008.15 1007.83 1007.55 1007.36 1007.23 1007.14 1006.99 1006.72 1006.24 1005.53 1004.64 1003.68 1002.81 1002.21 1002.00 1002.27 1003.01 1004.12 1005.44 1006.78 1008.00 1008.97
1009.68 1010.85 1011.78 1012.38 1012.59 1012.44 1012.01 1011.43 1010.84 1010.37 1010.10 1010.06 1010.20 1010.45 1010.72 1010.90 1010.96 1010.86 1010.65 1010.38 1010.10 1009.86 1009.65 1009.48 1009.30 1009.08 1008.81 1008.48 1008.15 1007.85 1007.62 1007.50 1007.44 1007.41 1007.32 1007.13 1006.78 1006.30 1005.76 1005.26 1004.93 1004.88 1005.16 1005.77 1006.63 1007.64 1008.64 1009.53 1010.22
1009.26 1010.24 1011.02 1011.52 1011.72 1011.65 1011.38 1011.00 1010.64 1010.40 1010.32 1010.42 1010.64 1010.92 1011.17 1011.31 1011.30 1011.15 1010.90 1010.60 1010.31 1010.07 1009.88 1009.74 1009.59 1009.40 1009.15 1008.83 1008.49 1008.17 1007.92 1007.77 1007.73 1007.75 1007.80 1007.79 1007.70 1007.53 1007.29 1007.06 1006.94 1006.99 1007.26 1007.76 1008.42 1009.18 1009.93 1010.58 1011.10
1008.68 1009.46 1010.09 1010.52 1010.74 1010.78 1010.69 1010.55 1010.45 1010.44 1010.56 1010.79 1011.09 1011.39 1011.61 1011.71 1011.66 1011.47 1011.18 1010.86 1010.56 1010.32 1010.14 1010.01 1009.88 1009.72 1009.49 1009.20 1008.86 1008.54 1008.27 1008.11 1008.06 1008.11 1008.21 1008.32 1008.39 1008.40 1008.36 1008.30 1008.30 1008.40 1008.64 1009.03 1009.54 1010.12 1010.70 1011.22 1011.66
1008.11 1008.71 1009.21 1009.58 1009.83 1009.98 1010.08 1010.16 1010.28 1010.48 1010.76 1011.09 1011.44 1011.74 1011.95 1012.02 1011.94 1011.72 1011.43 1011.10 1010.80 1010.57 1010.40 1010.27 1010.16 1010.02 1009.83 1009.56 1009.26 1008.95 1008.69 1008.53 1008.47 1008.52 1008.65 1008.80 1008.95 1009.06 1009.11 1009.15 1009.19 1009.29 1009.49 1009.78 1010.18 1010.64 1011.12 1011.59 1012.01
1007.73 1008.18 1008.57 1008.89 1009.18 1009.43 1009.67 1009.93 1010.22 1010.54 1010.91 1011.29 1011.65 1011.93 1012.11 1012.16 1012.07 1011.87 1011.59 1011.29 1011.01 1010.79 1010.63 1010.51 1010.41 1010.30 1010.13 1009.91 1009.66 1009.40 1009.17 1009.02 1008.97 1009.02 1009.15 1009.32 1009.50 1009.64 1009.73 1009.79 1009.84 1009.92 1010.06 1010.28 1010.58 1010.97 1011.41 1011.86 1012.31
1007.64 1007.98 1008.29 1008.59 1008.90 1009.22 1009.55 1009.91 1010.28 1010.66 1011.04 1011.40 1011.71 1011.95 1012.10 1012.13 1012.06 1011.89 1011.66 1011.41 1011.17 1010.97 1010.82 1010.70 1010.62 1010.52 1010.39 1010.23 1010.04 1009.84 1009.67 1009.56 1009.54 1009.60 1009.73 1009.90 1010.08 1010.23 1010.33 1010.40 1010.44 1010.48 1010.57 1010.74 1010.99 1011.32 1011.74 1012.20 1012.68
1007.88 1008.15 1008.41 1008.70 1009.02 1009.38 1009.76 1010.14 1010.52 1010.86 1011.18 1011.45 1011.67 1011.84 1011.95 1011.98 1011.93 1011.82 1011.66 1011.47 1011.27 1011.10 1010.96 1010.85 1010.77 1010.69 1010.60 1010.50 1010.38 1010.26 1010.16 1010.11 1010.13 1010.21 1010.35 1010.52 1010.70 1010.86 1010.97 1011.04 1011.08 1011.12 1011.18 1011.31 1011.53 1011.84 1012.23 1012.70 1013.20
1008.37 1008.62 1008.87 1009.16 1009.50 1009.87 1010.25 1010.61 1010.92 1011.16 1011.35 1011.50 1011.60 1011.68 1011.74 1011.77 1011.76 1011.72 1011.63 1011.51 1011.36 1011.22 1011.08 1010.97 1010.89 1010.82 1010.77 1010.72 1010.67 1010.63 1010.61 1010.62 1010.68 1010.79 1010.94 1011.12 1011.31 1011.49 1011.62 1011.73 1011.79 1011.85 1011.92 1012.05 1012.24 1012.53 1012.91 1013.37 1013.86
1008.99 1009.23 1009.50 1009.82 1010.18 1010.56 1010.92 1011.22 1011.43 1011.55 1011.59 1011.59 1011.57 1011.56 1011.57 1011.60 1011.64 1011.66 1011.64 1011.57 1011.47 1011.34 1011.21 1011.09 1011.00 1010.94 1010.92 1010.92 1010.94 1010.98 1011.02 1011.09 1011.18 1011.30 1011.46 1011.64 1011.85 1012.05 1012.23 1012.38 1012.51 1012.61 1012.72 1012.87 1013.07 1013.34 1013.70 1014.13 1014.60
1009.57 1009.83 1010.14 1010.50 1010.90 1011.30 1011.64 1011.88 1012.00 1011.99 1011.89 1011.74 1011.61 1011.52 1011.50 1011.54 1011.62 1011.69 1011.73 1011.71 1011.63 1011.50 1011.36 1011.22 1011.12 1011.07 1011.08 1011.14 1011.22 1011.32 1011.41 1011.51 1011.61 1011.73 1011.88 1012.06 1012.26 1012.49 1012.72 1012.94 1013.14 1013.31 1013.48 1013.66 1013.88 1014.15 1014.49 1014.88 1015.30
1009.98 1010.27 1010.63 1011.06 1011.52 1011.95 1012.29 1012.49 1012.53 1012.41 1012.20 1011.94 1011.72 1011.58 1011.54 1011.60 1011.71 1011.83 1011.91 1011.92 1011.85 1011.71 1011.54 1011.39 1011.28 1011.24 1011.29 1011.39 1011.53 1011.68 1011.81 1011.92 1012.01 1012.10 1012.21 1012.36 1012.55 1012.79 1013.06 1013.33 1013.60 1013.86 1014.09 1014.32 1014.56 1014.83 1015.14 1015.50 1015.88
1010.15 1010.48 1010.91 1011.42 1011.95 1012.44 1012.80 1012.98 1012.97 1012.77 1012.47 1012.14 1011.86 1011.69 1011.65 1011.73 1011.89 1012.05 1012.16 1012.19 1012.11 1011.96 1011.77 1011.59 1011.48 1011.46 1011.54 1011.69 1011.89 1012.08 1012.24 1012.35 1012.41 1012.46 1012.50 1012.59 1012.74 1012.96 1013.24 1013.56 1013.89 1014.20 1014.50 1014.77 1015.03 1015.30 1015.59 1015.92 1016.27
1010.08 1010.46 1010.96 1011.57 1012.20 1012.75 1013.15 1013.33 1013.28 1013.02 1012.66 1012.27 1011.96 1011.78 1011.76 1011.88 1012.08 1012.28 1012.42 1012.46 1012.38 1012.21 1012.00 1011.81 1011.70 1011.71 1011.83 1012.04 1012.29 1012.53 1012.71 1012.81 1012.84 1012.82 1012.79 1012.80 1012.88 1013.06 1013.32 1013.65 1014.00 1014.36 1014.69 1014.99 1015.27 1015.53 1015.81 1016.11 1016.44
1009.84 1010.27 1010.87 1011.59 1012.31 1012.94 1013.37 1013.54 1013.45 1013.15 1012.72 1012.29 1011.95 1011.77 1011.78 1011.94 1012.18 1012.43 1012.61 1012.67 1012.60 1012.42 1012.20 1012.02 1011.92 1011.96 1012.13 1012.39 1012.70 1012.98 1013.19 1013.29 1013.28 1013.20 1013.09 1013.02 1013.02 1013.13 1013.35 1013.66 1014.01 1014.38 1014.72 1015.03 1015.30 1015.56 1015.82 1016.10 1016.41
1009.54 1010.04 1010.75 1011.58 1012.39 1013.08 1013.52 1013.67 1013.52 1013.14 1012.65 1012.15 1011.78 1011.60 1011.62 1011.82 1012.12 1012.43 1012.66 1012.76 1012.71 1012.55 1012.34 1012.17 1012.10 1012.17 1012.38 1012.70 1013.06 1013.39 1013.63 1013.73 1013.70 1013.58 1013.41 1013.26 1013.19 1013.23 1013.39 1013.65 1013.98 1014.33 1014.66 1014.95 1015.21 1015.44 1015.68 1015.94 1016.24
1009.27 1009.88 1010.71 1011.65 1012.54 1013.26 1013.69 1013.78 1013.54 1013.05 1012.45 1011.87 1011.43 1011.22 1011.25 1011.49 1011.85 1012.23 1012.52 1012.68 1012.68 1012.57 1012.39 1012.24 1012.20 1012.30 1012.55 1012.91 1013.31 1013.69 1013.96 1014.08 1014.06 1013.91 1013.71 1013.51 1013.38 1013.36 1013.46 1013.67 1013.96 1014.26 1014.56 1014.83 1015.05 1015.26 1015.46 1015.70 1015.99
1009.12 1009.86 1010.82 1011.86 1012.82 1013.54 1013.92 1013.92 1013.55 1012.91 1012.17 1011.47 1010.94 1010.68 1010.70 1010.97 1011.38 1011.83 1012.21 1012.45 1012.53 1012.48 1012.35 1012.24 1012.22 1012.34 1012.61 1013.00 1013.43 1013.83 1014.13 1014.28 1014.28 1014.14 1013.94 1013.72 1013.56 1013.50 1013.56 1013.73 1013.96 1014.23 1014.48 1014.71 1014.89 1015.06 1015.23 1015.43 1015.69
1009.08 1009.97 1011.06 1012.20 1013.20 1013.91 1014.22 1014.09 1013.57 1012.77 1011.86 1011.01 1010.38 1010.04 1010.03 1010.31 1010.77 1011.29 1011.76 1012.10 1012.27 1012.30 1012.23 1012.17 1012.17 1012.30 1012.57 1012.95 1013.38 1013.79 1014.11 1014.30 1014.32 1014.22 1014.04 1013.84 1013.69 1013.62 1013.65 1013.79 1013.99 1014.21 1014.43 1014.61 1014.75 1014.88 1015.00 1015.17 1015.39
1009.15 1010.18 1011.39 1012.61 1013.63 1014.31 1014.54 1014.28 1013.61 1012.64 1011.57 1010.57 1009.82 1009.40 1009.34 1009.61 1010.10 1010.68 1011.24 1011.68 1011.95 1012.06 1012.07 1012.05 1012.07 1012.20 1012.45 1012.80 1013.20 1013.60 1013.93 1014.13 1014.19 1014.14 1014.00 1013.84 1013.72 1013.66 1013.70 1013.82 1014.00 1014.20 1014.38 1014.53 1014.64 1014.72 1014.80 1014.92 1015.10
1009.25 1010.40 1011.70 1012.97 1014.00 1014.64 1014.79 1014.43 1013.63 1012.52 1011.31 1010.20 1009.33 1008.83 1008.72 1008.96 1009.46 1010.09 1010.71 1011.24 1011.60 1011.80 1011.88 1011.90 1011.94 1012.05 1012.26 1012.57 1012.93 1013.30 1013.61 1013.82 1013.91 1013.90 1013.82 1013.72 1013.64 1013.62 1013.67 1013.80 1013.97 1014.15 1014.31 1014.44 1014.52 1014.57 1014.62 1014.70 1014.82
1009.31 1010.54 1011.89 1013.16 1014.18 1014.78 1014.87 1014.44 1013.57 1012.39 1011.10 1009.91 1008.97 1008.40 1008.23 1008.44 1008.92 1009.56 1010.23 1010.81 1011.24 1011.52 1011.66 1011.73 1011.78 1011.88 1012.06 1012.31 1012.62 1012.94 1013.21 1013.42 1013.53 1013.56 1013.53 1013.48 1013.46 1013.48 1013.56 1013.70 1013.87 1014.05 1014.21 1014.32 1014.39 1014.42 1014.44 1014.48 1014.56
1009.29 1010.52 1011.85 1013.09 1014.07 1014.63 1014.69 1014.25 1013.37 1012.18 1010.90 1009.69 1008.73 1008.12 1007.90 1008.05 1008.50 1009.12 1009.78 1010.38 1010.87 1011.20 1011.40 1011.51 1011.59 1011.69 1011.84 1012.05 1012.30 1012.57 1012.81 1013.00 1013.12 1013.17 1013.18 1013.18 1013.20 1013.26 1013.37 1013.52 1013.70 1013.88 1014.04 1014.15 1014.22 1014.25 1014.26 1014.27 1014.31
1009.15 1010.30 1011.55 1012.70 1013.61 1014.13 1014.18 1013.77 1012.95 1011.85 1010.63 1009.48 1008.55 1007.94 1007.68 1007.78 1008.16 1008.72 1009.34 1009.93 1010.43 1010.80 1011.05 1011.21 1011.32 1011.44 1011.59 1011.77 1011.99 1012.22 1012.43 1012.60 1012.72 1012.78 1012.82 1012.85 1012.90 1012.98 1013.11 1013.27 1013.46 1013.64 1013.81 1013.93 1014.01 1014.04 1014.05 1014.06 1014.08
1008.91 1009.91 1011.00 1012.01 1012.81 1013.27 1013.34 1012.99 1012.29 1011.32 1010.25 1009.21 1008.36 1007.77 1007.49 1007.53 1007.82 1008.30 1008.85 1009.40 1009.88 1010.27 1010.56 1010.78 1010.95 1011.10 1011.28 1011.47 1011.68 1011.89 1012.08 1012.24 1012.35 1012.42 1012.47 1012.51 1012.58 1012.67 1012.80 1012.97 1013.15 1013.34 1013.51 1013.64 1013.73 1013.79 1013.82 1013.83 1013.85
Thickness
5817 5815 5810 5799 5778 5758 5753 5763 5774 5774 5774 5779 5783 5779 5769 5762 5754 5746 5768 5777 5777 5777 5778 5779 5780 5781 5781 5782 5783 5784 5784 5785 5785 5785 5785 5785 5784 5783 5784 5784 5784 5784 5783 5782 5781 5780 5779 5778 5777
5821 5818 5806 5791 5764 5743 5750 5769 5772 5776 5781 5786 5784 5779 5771 5766 5771 5769 5772 5777 5778 5778 5779 5780 5780 5780 5781 5781 5782 5783 5783 5784 5785 5785 5784 5784 5783 5783 5783 5783 5783 5782 5782 5781 5780 5779 5778 5776 5775
5824 5820 5797 5778 5761 5751 5756 5773 5779 5785 5790 5788 5781 5780 5773 5767 5773 5773 5777 5779 5779 5779 5779 5780 5780 5780 5781 5781 5782 5783 5783 5783 5784 5784 5783 5783 5782 5782 5782 5782 5781 5781 5780 5779 5778 5777 5776 5774 5773
5822 5807 5793 5773 5763 5774 5777 5782 5788 5785 5786 5788 5782 5773 5774 5781 5781 5780 5781 5781 5779 5778 5779 5780 5781 5781 5781 5781 5782 5783 5783 5783 5783 5783 5782 5782 5781 5780 5781 5781 5780 5779 5778 5777 5777 5775 5774 5772 5771
5819 5798 5777 5765 5770 5784 5791 5794 5794 5785 5782 5782 5781 5768 5767 5781 5787 5784 5782 5781 5779 5779 5780 5780 5781 5781 5781 5782 5782 5783 5783 5783 5783 5782 5782 5781 5780 5779 5779 5779 5778 5778 5777 5776 5775 5773 5772 5771 5769
5807 5793 5768 5760 5774 5787 5795 5800 5796 5786 5782 5782 5779 5770 5767 5782 5783 5783 5783 5782 5782 5780 5780 5780 5780 5781 5781 5781 5782 5783 5783 5783 5782 5782 5781 5780 5779 5778 5777 5777 5776 5777 5776 5776 5775 5773 5770 5770 5768
5804 5787 5775 5775 5778 5783 5794 5804 5797 5789 5784 5785 5786 5770 5770 5779 5785 5786 5784 5783 5782 5781 5780 5780 5780 5780 5781 5781 5782 5782 5782 5782 5782 5781 5780 5779 5778 5777 5776 5775 5775 5775 5775 5775 5773 5772 5770 5768 5767
5821 5797 5782 5780 5780 5784 5802 5808 5805 5798 5791 5798 5793 5773 5769 5781 5789 5788 5785 5783 5782 5781 5780 5780 5780 5780 5781 5781 5781 5782 5782 5781 5781 5780 5779 5778 5777 5776 5775 5775 5774 5774 5774 5774 5772 5771 5769 5767 5766
5832 5793 5778 5785 5787 5791 5807 5804 5805 5809 5801 5799 5798 5791 5789 5792 5791 5785 5781 5779 5779 5780 5780 5781 5781 5781 5781 5781 5781 5781 5781 5781 5780 5780 5779 5778 5777 5776 5775 5774 5774 5773 5773 5772 5771 5770 5768 5766 5765
5822 5792 5795 5810 5810 5807 5810 5807 5805 5799 5791 5789 5790 5794 5796 5793 5788 5783 5779 5777 5777 5778 5780 5782 5782 5782 5782 5781 5781 5781 5780 5780 5780 5779 5778 5777 5776 5775 5774 5774 5773 5773 5772 5771 5770 5769 5767 5765 5764
5827 5811 5818 5822 5825 5822 5813 5810 5812 5797 5785 5789 5789 5790 5793 5791 5787 5784 5782 5782 5781 5782 5783 5783 5784 5783 5783 5782 5782 5781 5781 5780 5780 5779 5778 5776 5775 5774 5773 5773 5772 5772 5771 5770 5768 5767 5765 5764 5762
5832 5830 5832 5827 5830 5824 5817 5814 5808 5803 5800 5807 5804 5801 5796 5792 5789 5787 5786 5786 5785 5785 5785 5786 5786 5785 5784 5784 5783 5781 5780 5779 5779 5778 5777 5776 5774 5773 5772 5771 5771 5770 5769 5768 5766 5765 5763 5762 5760
5832 5831 5836 5836 5833 5829 5824 5815 5811 5808 5814 5814 5809 5803 5798 5795 5793 5793 5792 5791 5789 5787 5787 5788 5788 5787 5785 5784 5783 5782 5781 5779 5779 5778 5777 5776 5775 5773 5772 5770 5770 5769 5768 5767 5765 5763 5762 5761 5759
5837 5836 5835 5834 5833 5831 5821 5815 5813 5809 5817 5813 5808 5802 5801 5799 5797 5794 5793 5791 5790 5789 5789 5790 5789 5788 5787 5784 5783 5783 5782 5781 5780 5778 5777 5776 5775 5774 5772 5770 5769 5768 5767 5765 5764 5762 5761 5759 5757
5845 5828 5824 5828 5831 5827 5821 5803 5808 5816 5818 5810 5807 5805 5804 5802 5801 5798 5797 5795 5794 5793 5792 5791 5791 5790 5788 5785 5784 5784 5783 5782 5780 5779 5778 5777 5776 5774 5772 5770 5768 5767 5765 5764 5762 5760 5759 5757 5755
5833 5815 5801 5819 5828 5828 5812 5786 5810 5820 5816 5808 5808 5807 5804 5803 5804 5804 5802 5800 5798 5796 5794 5794 5795 5791 5789 5787 5786 5785 5783 5782 5781 5779 5778 5777 5776 5775 5773 5770 5768 5766 5765 5763 5760 5758 5756 5754 5752
5808 5794 5797 5811 5830 5827 5811 5795 5813 5822 5817 5810 5809 5808 5806 5804 5804 5805 5806 5803 5801 5799 5797 5795 5795 5792 5791 5789 5787 5785 5784 5782 5781 5780 5778 5777 5776 5775 5773 5770 5768 5766 5764 5762 5760 5757 5755 5752 5750
5792 5796 5800 5804 5823 5825 5811 5806 5817 5822 5818 5813 5811 5809 5807 5806 5806 5809 5808 5807 5804 5802 5800 5797 5796 5794 5792 5790 5788 5785 5783 5782 5781 5780 5779 5778 5776 5775 5773 5770 5767 5766 5763 5761 5759 5756 5755 5753 5750
5816 5807 5802 5814 5832 5822 5811 5809 5814 5820 5817 5813 5810 5809 5808 5809 5812 5812 5811 5809 5805 5802 5800 5798 5795 5794 5793 5789 5786 5782 5780 5781 5780 5780 5779 5778 5777 5775 5773 5770 5767 5765 5762 5760 5759 5757 5754 5751 5749
5821 5810 5808 5819 5833 5823 5808 5806 5817 5821 5820 5820 5816 5813 5812 5810 5810 5810 5810 5809 5806 5802 5801 5799 5797 5796 5794 5792 5789 5786 5784 5782 5781 5780 5779 5778 5777 5775 5773 5770 5767 5765 5762 5760 5758 5756 5752 5750 5749
5819 5813 5813 5813 5822 5821 5807 5796 5807 5819 5825 5825 5823 5821 5819 5816 5812 5811 5811 5810 5808 5805 5803 5802 5799 5798 5796 5794 5791 5788 5784 5781 5779 5778 5778 5778 5777 5775 5773 5771 5768 5766 5763 5760 5758 5757 5753 5749 5749
5813 5832 5829 5821 5804 5790 5798 5769 5795 5810 5815 5819 5820 5820 5820 5821 5819 5816 5814 5812 5811 5810 5808 5805 5802 5800 5798 5796 5792 5788 5783 5778 5778 5778 5778 5778 5777 5775 5773 5771 5769 5766 5764 5761 5760 5759 5756 5752 5747
5830 5842 5832 5823 5804 5790 5793 5776 5785 5805 5804 5815 5823 5826 5826 5826 5825 5822 5820 5818 5817 5815 5811 5807 5804 5802 5801 5798 5795 5790 5785 5783 5781 5780 5778 5777 5776 5775 5774 5772 5769 5767 5765 5763 5761 5759 5757 5754 5751
5844 5831 5820 5806 5789 5769 5785 5777 5780 5798 5812 5821 5827 5831 5831 5831 5830 5827 5826 5822 5819 5817 5814 5810 5805 5803 5802 5800 5796 5792 5788 5784 5781 5778 5776 5775 5774 5774 5773 5772 5769 5767 5765 5763 5761 5759 5757 5755 5753
5832 5800 5772 5766 5755 5761 5788 5782 5788 5821 5832 5834 5834 5834 5836 5835 5831 5828 5824 5821 5819 5817 5815 5812 5808 5804 5803 5801 5798 5795 5791 5787 5783 5780 5777 5775 5773 5772 5771 5771 5769 5767 5765 5763 5761 5759 5756 5755 5752
5823 5804 5770 5756 5751 5763 5784 5782 5805 5837 5843 5844 5842 5840 5836 5833 5833 5830 5828 5825 5823 5820 5817 5814 5810 5806 5804 5802 5799 5797 5794 5790 5786 5783 5780 5777 5775 5773 5772 5771 5768 5767 5765 5763 5761 5758 5756 5754 5752
5818 5806 5803 5777 5770 5760 5771 5792 5814 5834 5834 5835 5835 5834 5832 5833 5833 5832 5831 5829 5826 5823 5820 5817 5812 5808 5806 5803 5800 5797 5795 5792 5788 5785 5782 5779 5777 5775 5773 5770 5768 5766 5764 5762 5759 5756 5754 5753 5751
5833 5820 5793 5774 5756 5748 5764 5776 5785 5809 5818 5827 5830 5831 5833 5833 5833 5831 5830 5829 5828 5826 5823 5819 5815 5811 5807 5804 5801 5798 5795 5792 5789 5786 5782 5779 5777 5775 5772 5770 5767 5765 5763 5761 5758 5755 5754 5751 5750
5817 5811 5794 5774 5770 5752 5747 5767 5814 5817 5823 5825 5829 5833 5833 5832 5832 5831 5830 5829 5828 5826 5822 5816 5814 5810 5806 5803 5800 5797 5793 5790 5788 5785 5782 5779 5777 5775 5772 5769 5767 5764 5761 5759 5756 5753 5752 5749 5747
5823 5811 5794 5773 5767 5764 5756 5772 5828 5828 5829 5829 5830 5832 5834 5834 5833 5831 5829 5826 5824 5821 5819 5815 5812 5809 5806 5804 5800 5795 5792 5789 5786 5784 5782 5779 5776 5774 5771 5769 5766 5763 5760 5758 5754 5752 5750 5747 5744